User: anonymous   Login
Location: Zapote
(9.9191°N, 84.0597°W)
Time: 06:12:45
(UTC-06:00)
Language:

S-56A Canister/Altair - Orbit

View from above orbital plane
View from above orbital plane
View from above satellite
View from above satellite

Ground track
Ground track

The orbit data is extracted from the following two-line orbital elements,

1 00082U 61004B   21065.90700433 -.00000072  00000-0 -32771-4 0  9996
2 00082  38.8652 306.5581 1176604 270.2727  76.3495 12.26043885840021
Epoch (UTC): 06 March 2021 21:46:05
Eccentricity: 0.1176604
inclination: 38.8652°
perigee height: 631 km
apogee height: 2501 km
right ascension of ascending node: 306.5581°
argument of perigee: 270.2727°
revolutions per day: 12.26043885
mean anomaly at epoch: 76.3495°
orbit number at epoch: 84002

The dashed part of the orbit path shows where the satellite is in the earth's shadow,  

DLR